Overview Statistics Trail Chart Weather Telemetry Raw packets
 

This is the latest recevied weather packets stored in our database for station/object DG9MHV-10. If no packets are shown the sender has not sent any weather packets the latest 10 day(s).

<< 1 2 3 4 >>
Time Temp. Humidity Pressure Rain* Wind** Luminosity Snow
1788601135 23.33° C 100% 1020.5 hPa - - - -
1788600235 23.89° C 100% 1020.5 hPa - - - -
1788599335 22.78° C 100% 1020.3 hPa - - - -
1788598435 21.11° C 100% 1020.3 hPa - - - -
1788597535 18.33° C 100% 1020.6 hPa - - - -
1788596635 17.78° C 100% 1020.4 hPa - - - -
1788595735 18.33° C 100% 1021.1 hPa - - - -
1788594835 16.67° C 100% 1022.7 hPa - - - -
1788593934 15.56° C 100% 1023.2 hPa - - - -
1788593034 15° C 100% 1022.7 hPa - - - -
1788592134 15° C 100% 1021.4 hPa - - - -
1788591234 15.56° C 100% 1021 hPa - - - -
1788590334 15.56° C 100% 1020.7 hPa - - - -
1788589434 15.56° C 100% 1020.8 hPa - - - -
1788588534 15° C 100% 1020.3 hPa - - - -
1788587634 15° C 100% 1019.8 hPa - - - -
1788586734 15° C 100% 1019.5 hPa - - - -
1788585834 15.56° C 100% 1019.5 hPa - - - -
1788584934 16.11° C 100% 1018.9 hPa - - - -
1788584034 16.11° C 100% 1019.1 hPa - - - -
1788583134 16.67° C 100% 1018.9 hPa - - - -
1788582233 16.67° C 100% 1019 hPa - - - -
1788581333 16.67° C 100% 1018.9 hPa - - - -
1788580433 17.22° C 100% 1018.7 hPa - - - -
1788579533 17.22° C 100% 1018.4 hPa - - - -

* Rain since midnight (hover to see other rain measurements)
** Current wind speed in m/s (hover to see current wind gust speed)